Location: Im Fang
(46.6019°N, 7.2397°E)
Time: 19:31:50
(UTC+00:00)

Cosmos 1603 - Pass Details

Date: 08 December 2019
Orbit: 830 x 860 km, 71.0° (Epoch: 24 January)

Event Time Altitude Azimuth Distance (km) Brightness Sun altitude
Exits shadow 04:49:28 26° 336° (NNW) 1,639 4.9 -21.8°
Maximum altitude 04:52:52 85° 64° (ENE) 867 3.7 -21.3°
Drops below altitude 10° 04:58:35 10° 153° (SSE) 2,479 6.6 -20.3°
Sets 05:01:01 0° 154° (SSE) 3,407 7.4 -19.9°
